Regional Weather Roundup
Issued by NWS Charleston, SC

Current Version | Previous Version | Graphics & Text | Print | Product List | Glossary On
Versions: 1 2 3 4 5 6 7 8 9 10 11 12 13 14 15 16 17 18 19 20 21 22 23 24 25 26 27 28 29 30 31 32 33 34 35 36 37 38 39 40 41 42 43 44 45 46 47 48 49 50
000
ASUS42 KCHS 051513
RWRCHS

REGIONAL WEATHER ROUNDUP
NATIONAL WEATHER SERVICE CHARLESTON SC
1100 AM EDT THU MAY 05 2016

NOTE: "FAIR" INDICATES FEW OR NO CLOUDS BELOW 12,000 FEET WITH NO
SIGNIFICANT WEATHER AND/OR OBSTRUCTIONS TO VISIBILITY.

NOT ALL STATIONS ARE QUALITY CONTROLLED. USE DATA WITH CAUTION...
ESPECIALLY DEWPOINT OBSERVATIONS.

SCZ027-030-031-034>040-042>050-051600-
...SOUTHEAST SOUTH CAROLINA...

CITY           SKY/WX    TMP DP  RH WIND       PRES   REMARKS
N CHARLESTON   MOSUNNY   67  47  48 NW14      29.62R
WATERFRONT PRK NOT AVBL
MOUNT PLEASANT FAIR      66  50  55 W10G17    29.61R
JOHNS ISLAND   FAIR      66  50  55 W17G23    29.62S
PINOPOLIS      NOT AVBL
MONCKS CORNER  FAIR      63  43  48 W6        29.61S
SUMMERVILLE    NOT AVBL
BEAUFORT MCAS  MOSUNNY   66  45  46 NW16G22   29.67R
BEAUFORT ARPT  FAIR      64  45  48 NW14G21   29.66R
HILTON HEAD IS SUNNY     68  45  42 W12G26    29.68R
WALTERBORO     SUNNY     68  45  42 NW13G22   29.65S
ALLENDALE      FAIR      64  45  48 VRB7      29.66S

...SOUTHERN MIDLANDS AND PEE DEE...

CITY           SKY/WX    TMP DP  RH WIND       PRES   REMARKS
GEORGETOWN     FAIR      66  46  48 W12G20    29.58R
KINGSTREE      FAIR      64  46  52 NW12      29.59R
ORANGEBURG     SUNNY     65  43  44 N13G21    29.64S
BARNWELL       FAIR      64  46  52 W12       29.68R
AIKEN          FAIR      61  41  48 NW16      29.70S
MANNING        FAIR      63  46  55 NW9G17    29.61R
COLUMBIA       MOSUNNY   65  41  41 NW12G24   29.64R
SUMTER         MOSUNNY   64  47  54 NW15G31   29.59S
FLORENCE       PTSUNNY   66  50  56 NW17G23   29.57R
MYRTLE BEACH   MOSUNNY   70  48  46 W7        29.56
N MYRTLE BEACH SUNNY     69  52  54 NW8       29.53S

$$

GAZ063-065-086>088-099>101-113>116-118-119-134>141-150-051600-
...SOUTHEAST GEORGIA...

CITY           SKY/WX    TMP DP  RH WIND       PRES   REMARKS
SAVANNAH ARPT  MOSUNNY   68  42  38 W22G30    29.69R
HUNTER AAF     MOSUNNY   68  45  43 NW22G30   29.66S
FORT STEWART   SUNNY     67  38  34 NW18G30   29.69S
STATESBORO     SUNNY     68  49  49 NW15G24   29.71R
SYLVANIA       MOSUNNY   65  49  55 NW15G22   29.70S
CLAXTON        FAIR      66  43  43 W17G28    29.73R

...CSRA...CENTRAL AND FAR SOUTHEAST GEORGIA...

CITY           SKY/WX    TMP DP  RH WIND       PRES   REMARKS
THOMSON        MOSUNNY   64  47  55 NW13G22   29.76R
AUGUSTA-BUSH   MOSUNNY   64  43  46 NW14      29.69S
AUGUSTA-DANIEL MOSUNNY   63  41  44 NW13      29.70S
SWAINSBORO     FAIR      63  43  48 NW14G26   29.74S
VIDALIA        MOSUNNY   64  41  42 NW18G26   29.75S
EASTMAN        PTSUNNY   63  42  46 NW13G20   29.81S
HAZLEHURST     FAIR      66  42  40 NW10G21   29.76S
ALMA           SUNNY     66  43  43 NW18G25   29.76S
WAYCROSS       SUNNY     68  42  38 NW17G29   29.77S
JESUP          FAIR      70  46  43 NW18G25   29.74S
BAXLEY         FAIR      66  43  42 NW18G25   29.76R
BRUNSWICK      SUNNY     75  39  27 W16G29    29.73S
SAINT SIMONS   SUNNY     68  38  33 W17G30    29.72S

$$

SCZ027-028-034-036>038-045-046-048>050-GAZ119-141-051600-
...LAKE AND SUPPLEMENTAL COASTAL OBSERVATIONS...

STATION/POSITION TIME  TEMP    WIND        PRES    WAVE   SWELL
                       AIR SEA DIR/SP/G            HT/PER HT/PER/DIR
                 (UTC) (F)     (DEG/KT/KT) (MB)    (FT/S) (FT/S/D)
WINYAH BAY       1345   63     290/ 12     1000.0
LAKE MURRAY      1400   60     300/  8/ 13 1003.4S
ACE BASIN NERRS  NOT AVBL
FORT PULASKI     1400   62 74  300/ 18/ 22 1005.1R
SAPELO ISLAND    1400   65     290/ 14     1006.0S

$$

ANZ835-935-AMZ111-154-330-350-352-354-370-450-454-472-051600-
...C-MAN AND BUOY OBSERVATIONS...

STATION/POSITION TIME  TEMP    WIND        PRES    WAVE   SWELL
                       AIR SEA DIR/SP/G            HT/PER HT/PER/DIR
                 (UTC) (F)     (DEG/KT/KT) (MB)    (FT/S) (FT/S/D)
BUOY 41004       1450   64 74  270/ 19/ 23 1001.6R   5/ 5   2/ 9
BUOY 41008       NOT AVBL
FOLLY BEACH CMAN 1500   65     280/  9/ 12 1003.0R
CAPERS NEARSHORE 1408   62 70  290/ 16/ 21 1001.9R
FRIPP NEARSHORE  1408   62 69  290/ 19/ 25 1003.3S


STATION/POSITION TIME  TEMP    WIND        PRES    WAVE   SWELL
                       AIR SEA DIR/SP/G            HT/PER HT/PER/DIR
                 (UTC) (F)     (DEG/KT/KT) (MB)    (FT/S) (FT/S/D)
5E ST. MARYS GA  1421      71                N/A     3/ 3
FRYING PAN BUOY  1400   68 72  280/ 14/ 16  999.9R
BUOY 41025       1450   59 71   10/ 19/ 25  999.0R   5/ 6   2/130/ 9
CAPE LOOKOUT NC  1400   62      30/ 15/ 18  999.1R
BUOY 41002       1450   71 73  230/ 12/ 14 1000.4R   5/ 7   5/250/ 7
BUOY 41010       1420   74 78  300/ 19/ 23 1005.5R
ST AUGUSTINE FL  1500   68 69  300/ 15/ 19 1008.9R


$$



USA.gov is the U.S. government's official web portal to all federal, state and local government web resources and services.